This is the latest recevied weather packets stored in our database for station/object DO6GZ. If no packets are shown the sender has not sent any weather packets the latest 10 day(s).
| Time | Temp. | Humidity | Pressure | Rain* | Wind** | Luminosity | Snow |
|---|---|---|---|---|---|---|---|
| 1787847365 | 28.89° C | 76% | 1013.7 hPa | 0 mm | - | - | - |
| 1787846737 | 28.89° C | 72% | 1013.8 hPa | 0 mm | - | - | - |
| 1787846110 | 28.89° C | 71% | 1013.9 hPa | 0 mm | - | - | - |
| 1787845482 | 28.89° C | 70% | 1014 hPa | 0 mm | - | - | - |
| 1787844854 | 28.89° C | 70% | 1014 hPa | 0 mm | - | - | - |
| 1787844227 | 29.44° C | 66% | 1014 hPa | 0 mm | - | - | - |
| 1787843599 | 29.44° C | 65% | 1014 hPa | 0 mm | - | - | - |
| 1787842972 | 29.44° C | 65% | 1014 hPa | 0 mm | - | - | - |
| 1787842344 | 29.44° C | 63% | 1014 hPa | 0 mm | - | - | - |
| 1787841717 | 29.44° C | 61% | 1014.1 hPa | 0 mm | - | - | - |
| 1787841089 | 29.44° C | 60% | 1014.1 hPa | 0 mm | - | - | - |
| 1787840461 | 29.44° C | 61% | 1014.1 hPa | 0 mm | - | - | - |
| 1787839834 | 29.44° C | 63% | 1014.2 hPa | 0 mm | - | - | - |
| 1787839207 | 29.44° C | 62% | 1014.2 hPa | 0 mm | - | - | - |
| 1787838579 | 30° C | 64% | 1014.1 hPa | 0 mm | - | - | - |
| 1787837952 | 29.44° C | 63% | 1014.1 hPa | 0 mm | - | - | - |
| 1787837324 | 29.44° C | 65% | 1014.1 hPa | 0 mm | - | - | - |
| 1787836696 | 30° C | 63% | 1014 hPa | 0 mm | - | - | - |
| 1787836069 | 30° C | 64% | 1013.9 hPa | 0 mm | - | - | - |
| 1787835441 | 30° C | 64% | 1014.4 hPa | 0 mm | - | - | - |
| 1787834814 | 30° C | 70% | 1014.6 hPa | 0 mm | - | - | - |
| 1787834186 | 29.44° C | 75% | 1014.6 hPa | 0 mm | - | - | - |
| 1787833559 | 28.89° C | 79% | 1014.6 hPa | 0 mm | - | - | - |
| 1787832931 | 29.44° C | 95% | 1014.7 hPa | 0 mm | - | - | - |
| 1787832304 | 28.89° C | 96% | 1014.9 hPa | 0 mm | - | - | - |
* Rain latest hour (hover to see other rain measurements)
** Current wind speed in m/s (hover to see current wind gust speed)